Overview Statistics Trail Chart Weather Telemetry Raw packets
 

This is the latest recevied weather packets stored in our database for station/object KB8TTR. If no packets are shown the sender has not sent any weather packets the latest 10 day(s).

<< 1 2 3 4 >>
Time Temp. Humidity Pressure Rain* Wind** Luminosity Snow
1788626268 25° C 87% 1015.8 hPa 0 mm - 188 W/m² -
1788625973 25° C 87% 1015.9 hPa 0 mm - 280 W/m² -
1788625660 25° C 85% 1015.8 hPa 0 mm - 318 W/m² -
1788625359 25° C 85% 1015.9 hPa 0 mm - 220 W/m² -
1788625054 25.56° C 84% 1015.7 hPa 0 mm - 245 W/m² -
1788624753 25.56° C 85% 1015.8 hPa 0 mm - 350 W/m² -
1788624452 25° C 87% 1015.7 hPa 0 mm - 443 W/m² -
1788624151 25° C 87% 1015.7 hPa 0 mm - 294 W/m² -
1788623846 25° C 86% 1015.9 hPa 0 mm - 256 W/m² -
1788623545 25.56° C 85% 1015.9 hPa 0 mm - 281 W/m² -
1788623239 25.56° C 86% 1015.8 hPa 0 mm - 512 W/m² -
1788622935 25.56° C 85% 1015.6 hPa 0 mm - 739 W/m² -
1788622631 25.56° C 87% 1015.6 hPa 0 mm - 584 W/m² -
1788622326 25° C 88% 1015.6 hPa 0 mm - 448 W/m² -
1788622021 24.44° C 90% 1015.5 hPa 0 mm - 347 W/m² -
1788621715 24.44° C 91% 1015.8 hPa 0 mm - 360 W/m² -
1788621410 23.89° C 92% 1015.6 hPa 0 mm - 188 W/m² -
1788621106 23.89° C 93% 1015.7 hPa 0 mm - 173 W/m² -
1788620801 23.33° C 95% 1015.7 hPa 0 mm - 113 W/m² -
1788620499 23.33° C 94% 1015.6 hPa 0 mm - 89 W/m² -
1788620197 23.33° C 94% 1015.6 hPa 0 mm - 49 W/m² -
1788619897 23.33° C 93% 1015.3 hPa 0 mm - 28 W/m² -
1788619592 23.33° C 93% 1015.6 hPa 0 mm - 29 W/m² -
1788619291 23.33° C 93% 1015.4 hPa 0 mm - 33 W/m² -
1788618995 23.33° C 92% 1015.3 hPa 0 mm - 30 W/m² -

* Rain latest hour (hover to see other rain measurements)
** Current wind speed in m/s (hover to see current wind gust speed)